Simultaneous Nadir Overpasses (SNOs) Predictions

Prediction of SNOs between AQUA and NOAA-19 Satellite Orbit:

Table of predicted SNOs for the next 14.0 days since TLE Epoch: 8/4/2017
Index Date (AQUA) Time (AQUA) Lat,Lon (AQUA) SZA (AQUA ) Date (NOAA-19) Time (NOAA-19) Lat,Lon (NOAA-19) SZA (NOAA-19 ) Distance(km) Time Diff (sec)
1 08/06/2017 01:26:37 -80.94, -61.98 113.36 08/06/2017 01:25:39 -80.95, -62.17 113.31 3.27 58
2 08/06/2017 02:16:04 80.96, 105.40 66.70 08/06/2017 02:16:42 80.95, 105.57 66.65 3.25 38
3 08/08/2017 07:00:21 80.95, 34.51 67.27 08/08/2017 06:59:29 80.95, 34.64 67.28 2.13 52
4 08/08/2017 07:49:48 -80.95,-157.91 112.71 08/08/2017 07:50:26 -80.95,-157.84 112.74 1.36 38
5 08/10/2017 12:34:05 -80.94, 131.18 112.12 08/10/2017 12:33:14 -80.95, 131.03 112.07 2.70 51
6 08/10/2017 13:23:31 80.94, -61.09 67.88 08/10/2017 13:24:16 80.95, -61.26 67.89 3.19 45
7 08/12/2017 18:07:49 80.95,-132.38 68.56 08/12/2017 18:07:03 80.95,-132.25 68.57 2.45 46
8 08/12/2017 18:57:16 -80.96, 35.20 111.42 08/12/2017 18:58:01 -80.95, 35.32 111.46 2.34 45
9 08/14/2017 23:41:33 -80.95, -35.77 110.78 08/14/2017 23:40:49 -80.95, -35.85 110.75 1.39 44
10 08/15/2017 00:30:59 80.94, 131.96 69.22 08/15/2017 00:31:50 80.95, 131.81 69.22 2.79 51
11 08/17/2017 05:15:17 80.96, 60.62 69.94 08/17/2017 05:14:37 80.95, 60.76 69.94 2.95 40




NCC Satellite Simultaneous Nadir Overpasses (SNOs) Prediction Service
